Location: Observatoire
(46.1952°N, 5.3391°E)
Time: 11:20:37
(UTC+02:00)

Envisat - Visible Passes

Search period start: 27 September 2021 00:00
Search period end: 07 October 2021 00:00
Orbit: 764 x 766 km, 98.2° (Epoch: 26 September)

Date Brightness Start Highest point End Pass type
(mag) Time Alt. Az. Time Alt. Az. Time Alt. Az.
27 Sep 4.3 06:24:30 10° NNE 06:29:23 44° E 06:34:13 10° S visible
28 Sep 5.6 05:48:23 10° NE 05:52:15 21° E 05:56:06 10° SE visible
29 Sep 3.3 06:49:41 10° NNE 06:54:47 76° ESE 06:59:52 10° S visible
30 Sep 4.7 06:13:09 10° NNE 06:17:49 35° E 06:22:26 10° SSE visible
01 Oct 5.9 05:37:18 10° NE 05:40:37 17° E 05:43:54 10° SE visible
02 Oct 3.7 06:38:12 10° NNE 06:43:15 60° E 06:48:16 10° S visible
03 Oct 5.1 06:01:49 10° NE 06:06:13 28° E 06:10:34 10° SSE visible
04 Oct 6.0 05:26:27 10° ENE 05:28:57 14° E 05:31:27 10° ESE visible
04 Oct 3.0 07:03:30 10° NNE 07:08:37 82° WNW 07:13:41 10° SSW visible
05 Oct 4.1 06:26:46 10° NNE 06:31:42 48° E 06:36:35 10° S visible
06 Oct 5.5 05:50:35 10° NE 05:54:35 23° E 05:58:35 10° SE visible
